Weather History for Gwinn, MI

Change the Weather History Date:

Friday, February 10, 2012

  Actual Average (KESC) Record (KESC)
Temperature  
Mean Temperature 18 °F -  
Max Temperature 23 °F 26 °F 48 °F (2009)
Min Temperature 8 °F 7 °F -14 °F (1982)
Degree Days  
Heating Degree Days 48    
Moisture  
Dew Point 9 °F    
Average Humidity 78    
Maximum Humidity 86    
Minimum Humidity 67    
Precipitation  
Precipitation 0.00 in - - ()
Sea Level Pressure  
Sea Level Pressure 30.01 in    
Wind  
Wind Speed 19 mph (North)    
Max Wind Speed 25 mph    
Max Gust Speed 33 mph    
Visibility 3 miles    
Events Snow    
Averages and records for this station are not official NWS values.
T = Trace of Precipitation, MM = Missing Value Source: NWS Daily Summary

Daily Weather History Graph

Daily Weather History Graph

Search for Another Location

Airport:

Trip Planner

Search our weather history database for the weather conditions in past years. The results will help you decide how hot, cold, wet, or windy it might be!

Date:

Astronomy

Feb. 10, 2012 Rise Set
Actual Time 8:01 AM EST 6:07 PM EST
Civil Twilight 7:29 AM EST 6:38 PM EST
Nautical Twilight 6:54 AM EST 7:13 PM EST
Astronomical Twilight 6:19 AM EST 7:48 PM EST
Moon 10:02 PM EST (2/10) 8:54 AM EST (2/10)
Length of Visible Light 11h 08m
Length of Day
10h 05m
Waning Gibbous, 90% of the Moon is Illuminated
Feb 10
Waning Gibbous
Feb 14
Last Quarter
Feb 21
New
Feb 29
First Quarter
Mar 8
Full

Hourly Weather History & Observations

Time (EST) Temp. Windchill Dew Point Humidity Pressure Visibility Wind Dir Wind Speed Gust Speed Precip Events Conditions
12:16 AM 27.3 °F 16.1 °F 17.8 °F 67% 29.83 in 10.0 mi North 13.8 mph - N/A   Overcast
12:37 AM 25.0 °F 10.6 °F 20.8 °F 84% 29.84 in 2.5 mi North 20.7 mph - N/A Snow Light Snow
12:57 AM 23.7 °F 8.5 °F 19.8 °F 85% 29.85 in 2.0 mi North 21.9 mph 25.3 mph N/A Snow Light Snow
1:16 AM 23.0 °F 8.0 °F 19.4 °F 86% 29.86 in 2.5 mi North 20.7 mph - N/A Snow Light Snow
1:37 AM 22.1 °F 7.6 °F 18.1 °F 85% 29.87 in 1.2 mi NNE 18.4 mph 26.5 mph N/A Snow Light Snow
1:57 AM 21.2 °F 6.8 °F 17.6 °F 86% 29.87 in 0.8 mi NNE 17.3 mph 27.6 mph N/A Snow Snow
2:16 AM 20.3 °F 3.7 °F 16.5 °F 85% 29.88 in 1.0 mi NNE 23.0 mph 28.8 mph N/A Snow Snow
2:37 AM 19.9 °F 4.3 °F 16.0 °F 85% 29.89 in 0.8 mi NNE 19.6 mph 29.9 mph N/A Snow Snow
2:57 AM 19.0 °F 2.7 °F 14.9 °F 84% 29.90 in 1.0 mi NNE 20.7 mph 33.4 mph N/A Snow Snow
3:17 AM 18.3 °F 1.4 °F 13.6 °F 82% 29.91 in 1.0 mi NNE 21.9 mph 26.5 mph N/A Snow Light Snow
3:37 AM 17.6 °F -0.6 °F 13.1 °F 83% 29.91 in 1.0 mi NNE 25.3 mph 31.1 mph N/A Snow Snow
3:56 AM 16.7 °F -0.7 °F 12.6 °F 84% 29.91 in 0.8 mi NNE 21.9 mph 32.2 mph N/A Snow Snow
4:17 AM 16.3 °F -0.8 °F 11.8 °F 82% 29.91 in 0.8 mi NNE 20.7 mph 32.2 mph N/A Snow Snow
4:36 AM 16.0 °F -1.3 °F 12.0 °F 84% 29.92 in 0.5 mi NNE 20.7 mph 32.2 mph N/A Snow Snow
4:57 AM 15.4 °F -1.6 °F 11.3 °F 84% 29.93 in 0.8 mi NNE 19.6 mph 23.0 mph N/A Snow Snow
5:17 AM 14.9 °F -1.3 °F 10.8 °F 84% 29.94 in 0.8 mi NNE 17.3 mph 26.5 mph N/A Snow Snow
5:37 AM 14.7 °F -4.5 °F 10.4 °F 83% 29.94 in 0.5 mi NNE 25.3 mph 32.2 mph N/A Snow Heavy Snow
5:57 AM 14.4 °F -3.0 °F 10.2 °F 84% 29.95 in 0.8 mi NNE 19.6 mph 24.2 mph N/A Snow Snow
6:50 AM 12.2 °F -6.3 °F 8.6 °F 85% 29.98 in 0.8 mi NNE 20.7 mph 29.9 mph N/A Snow Snow
7:50 AM 12.2 °F -7.1 °F 6.8 °F 79% 30.01 in 0.8 mi NNE 23.0 mph 28.8 mph N/A Snow Snow
8:50 AM 10.4 °F -9.9 °F 5.0 °F 79% 30.04 in 0.8 mi North 24.2 mph 33.4 mph N/A Snow Snow
9:50 AM 8.6 °F -11.4 °F 1.4 °F 73% 30.06 in 0.8 mi NNE 21.9 mph 28.8 mph N/A Snow Light Snow
10:55 AM 8.6 °F -11.4 °F 3.2 °F 79% 30.08 in 0.8 mi NNE 21.9 mph 32.2 mph N/A Snow Snow
11:50 AM 8.6 °F -11.0 °F 3.2 °F 79% 30.10 in 1.0 mi North 20.7 mph 24.2 mph N/A Snow Light Snow
12:50 PM 10.4 °F -9.5 °F 3.2 °F 73% 30.09 in 0.5 mi North 23.0 mph 32.2 mph N/A Snow Light Snow
1:50 PM 10.4 °F -9.1 °F 3.2 °F 73% 30.09 in 1.0 mi North 21.9 mph 27.6 mph N/A Snow Light Snow
2:50 PM 10.4 °F -6.6 °F 3.2 °F 73% 30.10 in 1.2 mi North 16.1 mph 24.2 mph N/A Snow Light Snow
3:50 PM 10.4 °F -7.2 °F 3.2 °F 73% 30.11 in 3.0 mi NNW 17.3 mph 26.5 mph N/A Snow Light Snow
4:50 PM 10.4 °F -7.7 °F 3.2 °F 73% 30.12 in 7.0 mi NNW 18.4 mph 25.3 mph N/A   Haze
5:50 PM 10.4 °F -7.7 °F 1.4 °F 67% 30.13 in 10.0 mi NNW 18.4 mph 21.9 mph N/A   Overcast
6:55 PM 10.4 °F -5.4 °F 1.4 °F 67% 30.14 in 10.0 mi NNW 13.8 mph 21.9 mph N/A   Overcast
7:50 PM 8.6 °F -8.3 °F 1.4 °F 73% 30.14 in 7.0 mi NW 15.0 mph 21.9 mph N/A   Overcast
8:50 PM 8.6 °F -7.0 °F 1.4 °F 73% 30.14 in 10.0 mi NNW 12.7 mph - N/A   Overcast
9:50 PM 10.4 °F -4.1 °F 1.4 °F 67% 30.14 in 10.0 mi NNW 11.5 mph 17.3 mph N/A   Overcast
10:17 PM 10.9 °F -4.1 °F 2.1 °F 68% 30.14 in 10.0 mi NNW 12.7 mph - N/A   Overcast
10:37 PM 11.7 °F -3.2 °F 3.0 °F 68% 30.14 in 7.0 mi North 12.7 mph - N/A Snow Light Snow
10:57 PM 12.2 °F -4.3 °F 3.7 °F 69% 30.14 in 5.0 mi North 16.1 mph 24.2 mph N/A   Haze
11:17 PM 12.7 °F -5.1 °F 4.6 °F 70% 30.14 in 3.0 mi North 19.6 mph 24.2 mph N/A   Haze
11:37 PM 12.7 °F -3.6 °F 5.4 °F 72% 30.14 in 2.5 mi North 16.1 mph 29.9 mph N/A Snow Light Snow
11:56 PM 12.7 °F -4.6 °F 5.9 °F 74% 30.14 in 4.0 mi North 18.4 mph - N/A Snow Light Snow